Tiempo atmosférico en la estación meteorológica de Anaga, Santa Cruz de Tenerife (19 m.)



Fecha
DESCASC
Temp. máxima en grados centígrados (hora)
DESCASC
Temp. mínima en grados centígrados (hora)
DESCASC
Temp. media en grados centígrados
DESCASC
Racha de viento máxima en m/sg (hora)
DESCASC
Velocidad máxima media en intervalos de 10 minutos(hora)
DESCASC
Precipitaciones diarias en mm
DESCASC
Precipitaciones de 00:00 a 06:00 en mm
DESCASC
Precipitaciones de 06:00 a 12:00 en mm
DESCASC
Precipitaciones de 12:00 a 18:00 en mm
DESCASC
Precipitaciones de 18:00 a 24:00 en mm
DESCASC
06-12-2018 24.1 (12:30) 17.5 (00:30) 20.8 9.44 (03:30) 3.33 (03:20) 0 0 0 0 0
05-12-2018 24.3 (13:50) 16.3 (00:30) 20.3 6.11 (21:50) 2.78 (21:50) 0 0 0 0 0
04-12-2018 25.6 (11:30) 14.5 (03:00) 20.1 4.44 (11:20) 2.22 (13:00) 0 0 0 0 0
03-12-2018 23.8 (14:10) 15 (00:00) 19.4 3.89 (14:10) 2.22 (14:10) 0 0 0 0 0
02-12-2018 22.6 (14:30) 15.7 (00:00) 19.2 5.56 (10:20) 2.5 (10:20) 0 0 0 0 0
01-12-2018 23.2 (13:00) 16.7 (00:00) 20 6.94 (14:30) 3.06 (14:20) 0 0 0 0 0
30-11-2018 24 (15:30) 14.4 (00:00) 19.2 8.06 (18:10) 3.33 (13:20) 0 0 0 0 0
29-11-2018 24.8 (15:10) 15.1 (00:00) 19.9 6.94 (21:50) 2.78 (21:50) 0 0 0 0 0
28-11-2018 22.6 (13:10) 15.6 (00:00) 19.1 4.72 (14:10) 2.22 (13:40) 0 0 0 0 0
27-11-2018 23.4 (13:40) 16.6 (00:00) 20 7.78 (16:00) 3.61 (16:00) 0 0 0 0 0
25-11-2018 24.6 (15:00) 16.8 (00:00) 20.7 6.94 (15:00) 3.06 (19:10) 0 0 0 0 0
24-11-2018 21.8 (14:50) 13.9 (00:00) 17.8 6.39 (12:10) 3.33 (10:50) 0 0 0 0 0
23-11-2018 20.7 (15:10) 14.4 (00:00) 17.6 9.17 (12:30) 3.89 (00:40) 8.4 2.8 5.2 0.4 0
22-11-2018 19.3 (14:20) 15.9 (00:00) 17.6 12.78 (16:10) 6.11 (16:10) 17.6 0.2 7 5.4 5
21-11-2018 22.5 (13:10) 16.5 (00:00) 19.5 10.28 (18:30) 5.28 (18:10) 0.6 0 0 0.6 0
20-11-2018 23.8 (14:20) 15.7 (00:00) 19.7 6.94 (15:10) 3.06 (13:40) 0 0 0 0 0
19-11-2018 22.1 (14:20) 16 (00:00) 19.1 8.61 (09:00) 4.17 (08:10) 1 0.4 0.6 0 0
18-11-2018 21.9 (12:50) 17.2 (00:00) 19.6 15.28 (16:20) 6.11 (16:20) 1.8 0.8 0 1 0
17-11-2018 22 (15:00) 16.6 (00:00) 19.3 11.67 (17:20) 5.83 (17:20) 4 0 0 2.8 1.2
16-11-2018 23.6 (14:00) 17.2 (00:00) 20.4 8.61 (04:20) 4.72 (13:10) 0 0 0 0 0
15-11-2018 22.6 (14:00) 15.8 (00:00) 19.2 11.39 (12:20) 5 (12:40) 0.6 0 0.6 0 0
14-11-2018 22.5 (12:30) 17.5 (00:00) 20 9.72 (18:30) 5 (18:40) 0 0 0 0 0
13-11-2018 22.1 (15:00) 17.4 (00:00) 19.8 8.89 (14:00) 3.89 (14:00) 1.4 1 0.2 0.2 0
12-11-2018 21.8 (14:50) 17.2 (00:00) 19.5 11.67 (15:20) 5.56 (11:10) 9.6 0 4 5 0.6
11-11-2018 24.3 (15:00) 19.1 (00:00) 21.7 7.78 (16:00) 3.89 (16:30) 0 0 0 0 0
10-11-2018 23.1 (14:50) 18.3 (00:00) 20.7 7.78 (15:50) 2.78 (13:50) 0 0 0 0 0
09-11-2018 23.1 (15:00) 18.8 (00:00) 20.9 7.5 (15:10) 3.33 (15:10) 6.2 0.2 5.8 0.2 0

Gráficas

Temp. máximas Temp. mínimas Temp. medias Precipitaciones Rachas de viento máximas Velocidades máximas media en intervalos de 10 minutos

Datos horarios

Fecha y hora oficial Temperatura (ºC) Velocidad del viento (km/h) Dirección del viento Racha (km/h) Dirección de racha Precipitación (mm) Presión (hPa) Tendencia (hPa) Humedad (%)
2018-12-08 23:00:00 16 5 Norte 9 Norte 0 -- -- 83
2018-12-08 22:00:00 16.4 4 Norte 7 Norte 0 -- -- 81
2018-12-08 21:00:00 17.1 3 Norte 8 Norte 0 -- -- 81
2018-12-08 20:00:00 18.3 2 Norte 18 Sur 0 -- -- 77
2018-12-08 19:00:00 19.8 6 Sur 19 Sur 0 -- -- 73
2018-12-08 18:00:00 20.3 13 Sur 26 Sur 0 -- -- 71
2018-12-08 17:00:00 20.6 9 Sur 26 Sudeste 0 -- -- 70
2018-12-08 16:00:00 21.6 10 Sudeste 24 Este 0 -- -- 68
2018-12-08 15:00:00 22 13 Sudeste 26 Sudeste 0 -- -- 66
2018-12-08 14:00:00 22.5 10 Sudeste 26 Sur 0 -- -- 64
2018-12-08 13:00:00 22.9 6 Sur 20 Sudeste 0 -- -- 63
2018-12-08 12:00:00 22 6 Sur 20 Sudeste 0 -- -- 64
2018-12-08 11:00:00 21.1 6 Sur 26 Sur 0 -- -- 66
2018-12-08 10:00:00 20.3 5 Nordeste 27 Sudeste 0 -- -- 68
2018-12-08 09:00:00 18.4 4 Noroeste 14 Sudoeste 0 -- -- 78
2018-12-08 08:00:00 16.6 4 Norte 11 Oeste 0 -- -- 84
2018-12-08 07:00:00 16 5 Norte 11 Noroeste 0 -- -- 86
2018-12-08 06:00:00 16.2 4 Norte 10 Nordeste 0 -- -- 86
2018-12-08 05:00:00 16.5 6 Norte 12 Noroeste 0 -- -- 87
2018-12-08 04:00:00 16.2 5 Norte 11 Norte 0 -- -- 85
2018-12-08 03:00:00 16.2 4 Norte 10 Norte 0 -- -- 85
2018-12-08 02:00:00 16 4 Norte 8 Norte 0 -- -- 86
2018-12-08 01:00:00 16.7 3 Norte 9 Noroeste 0 -- -- 83
2018-12-08 00:00:00 16.5 5 Norte 10 Sudoeste 0 -- -- 83
2018-12-07 23:00:00 16.3 4 Norte 8 Norte 0 -- -- 84
2018-12-07 22:00:00 16.6 4 Norte 8 Norte 0 -- -- 81
2018-12-07 21:00:00 16.9 4 Norte 6 Norte 0 -- -- 81
2018-12-07 20:00:00 17.6 3 Norte 7 Norte 0 -- -- 79
2018-12-07 19:00:00 19.6 0 Calma 20 Sur 0 -- -- 74
2018-12-07 18:00:00 20.8 9 Sur 22 Sudeste 0 -- -- 75
2018-12-07 17:00:00 21.6 11 Sur 24 Sudeste 0 -- -- 68
2018-12-07 16:00:00 22.8 9 Sur 23 Sur 0 -- -- 64
2018-12-07 15:00:00 23.5 9 Sur 26 Sudeste 0 -- -- 64
2018-12-07 14:00:00 23.7 10 Sudeste 20 Sudeste 0 -- -- 66
2018-12-07 13:00:00 23.5 8 Sur 14 Sur 0 -- -- 68
2018-12-07 12:00:00 23.3 6 Sur 14 Sur 0 -- -- 68
2018-12-07 11:00:00 22.3 6 Sur 11 Sur 0 -- -- 70
2018-12-07 10:00:00 21 3 Norte 10 Norte 0 -- -- 54
2018-12-07 09:00:00 18.7 4 Norte 10 Norte 0 -- -- 57
2018-12-07 08:00:00 17.6 5 Norte 10 Nordeste 0 -- -- 58
2018-12-07 07:00:00 18 4 Norte 14 Norte 0 -- -- 60
2018-12-07 06:00:00 18.5 4 Noroeste 16 Norte 0 -- -- 56
2018-12-07 05:00:00 18.6 4 Norte 15 Noroeste 0 -- -- 54
2018-12-07 04:00:00 18.1 3 Norte 11 Norte 0 -- -- 59
2018-12-07 03:00:00 18.5 3 Norte 10 Nordeste 0 -- -- 54
2018-12-07 02:00:00 19.8 4 Norte 12 Noroeste 0 -- -- 46
2018-12-07 01:00:00 19 4 Norte 11 Norte 0 -- -- 51
2018-12-07 00:00:00 18.8 5 Norte 12 Noroeste 0 -- -- 50
2018-12-06 23:00:00 19.2 4 Norte 14 Norte 0 -- -- 49
2018-12-06 22:00:00 19.6 4 Norte 14 Sudoeste 0 -- -- 45
2018-12-06 21:00:00 19.7 4 Norte 15 Nordeste 0 -- -- 41
2018-12-06 20:00:00 19.7 6 Norte 13 Norte 0 -- -- 47
2018-12-06 19:00:00 19.5 5 Norte 12 Sur 0 -- -- 62
2018-12-06 18:00:00 22.1 9 Sur 21 Sudeste 0 -- -- 47
2018-12-06 17:00:00 22.3 6 Sur 17 Sur 0 -- -- 52
2018-12-06 16:00:00 22.7 8 Sudeste 21 Sur 0 -- -- 55
2018-12-06 15:00:00 23.4 6 Sur 16 Sur 0 -- -- 55
2018-12-06 14:00:00 22.9 7 Sur 17 Sudeste 0 -- -- 54
2018-12-06 13:00:00 23.4 5 Sur 15 Sudeste 0 -- -- 53
2018-12-06 12:00:00 22.8 3 Noroeste 13 Sudeste 0 -- -- 56
2018-12-06 11:00:00 22.7 4 Sur 17 Sudeste 0 -- -- 61
2018-12-06 10:00:00 22.7 5 Sur 12 Sudeste 0 -- -- 62
2018-12-06 09:00:00 20.4 2 Nordeste 12 Sudoeste 0 -- -- 72
2018-12-06 08:00:00 19.1 3 Sudoeste 13 Noroeste 0 -- -- 72
2018-12-06 07:00:00 18.7 2 Norte 12 Noroeste 0 -- -- 70
2018-12-06 06:00:00 19.8 3 Sudoeste 17 Nordeste 0 -- -- 66
2018-12-06 05:00:00 21 4 Sur 12 Sudoeste 0 -- -- 59
2018-12-06 04:00:00 21.7 3 Norte 34 Sudeste 0 -- -- 55
2018-12-06 03:00:00 20.4 5 Sudoeste 17 Sudoeste 0 -- -- 57
2018-12-06 02:00:00 19 5 Norte 16 Noroeste 0 -- -- 70
2018-12-06 01:00:00 17.5 3 Norte 10 Norte 0 -- -- 72
2018-12-06 00:00:00 18.1 2 Norte 8 Nordeste 0 -- -- 73
2018-12-05 23:00:00 19.1 0 Calma 9 Sudeste 0 -- -- 74
2018-12-05 22:00:00 20.4 8 Sur 22 Sudeste 0 -- -- 66
2018-12-05 21:00:00 18.5 0 Calma 10 Nordeste 0 -- -- 71
2018-12-05 20:00:00 19.1 2 Norte 8 Sudoeste 0 -- -- 70
2018-12-05 19:00:00 20.4 4 Sudoeste 11 Sudoeste 0 -- -- 68
2018-12-05 18:00:00 20.8 3 Sur 10 Sudoeste 0 -- -- 68
2018-12-05 17:00:00 21.4 4 Sudoeste 14 Sudeste 0 -- -- 57
2018-12-05 16:00:00 23.2 5 Sur 17 Sur 0 -- -- 61
2018-12-05 15:00:00 23.8 7 Sudeste 19 Sur 0 -- -- 57
2018-12-05 14:00:00 24.3 5 Sudeste 15 Sudeste 0 -- -- 59
2018-12-05 13:00:00 24.1 5 Sur 20 Sudeste 0 -- -- 57
2018-12-05 12:00:00 24.1 5 Sudeste 17 Sur 0 -- -- 57
2018-12-05 11:00:00 23.6 4 Sur 14 Sur 0 -- -- 61
2018-12-05 10:00:00 22.6 3 Norte 11 Oeste 0 -- -- 67
2018-12-05 09:00:00 19.4 2 Nordeste 9 Norte 0 -- -- 78
2018-12-05 08:00:00 16.9 3 Norte 9 Norte 0 -- -- 82
2018-12-05 07:00:00 17.2 4 Norte 9 Nordeste 0 -- -- 74
2018-12-05 06:00:00 17.9 2 Norte 10 Norte 0 -- -- 65
2018-12-05 05:00:00 17.8 5 Norte 12 Norte 0 -- -- 57
2018-12-05 04:00:00 17.8 6 Norte 13 Norte 0 -- -- 46
2018-12-05 03:00:00 16.9 7 Norte 11 Norte 0 -- -- 57
2018-12-05 02:00:00 17.2 6 Norte 11 Norte 0 -- -- 49
2018-12-05 01:00:00 16.7 5 Norte 9 Norte 0 -- -- 60
2018-12-05 00:00:00 16.5 5 Norte 9 Norte 0 -- -- 59
2018-12-04 23:00:00 17.4 4 Norte 9 Norte 0 -- -- 55
2018-12-04 22:00:00 17.8 4 Norte 9 Norte 0 -- -- 57
2018-12-04 21:00:00 18.2 6 Norte 11 Norte 0 -- -- 58
2018-12-04 20:00:00 18.7 5 Norte 9 Norte 0 -- -- 57
2018-12-04 19:00:00 19.4 3 Norte 11 Noroeste 0 -- -- 57
2018-12-04 18:00:00 22.2 3 Nordeste 11 Sudeste 0 -- -- 50
2018-12-04 17:00:00 23 3 Sur 12 Este 0 -- -- 44
2018-12-04 16:00:00 25 3 Sudeste 12 Sudeste 0 -- -- 38
2018-12-04 15:00:00 25.1 6 Sudeste 13 Sur 0 -- -- 47
2018-12-04 14:00:00 24.6 5 Sudeste 13 Sur 0 -- -- 55
2018-12-04 13:00:00 24.7 8 Sur 15 Sudoeste 0 -- -- 49
2018-12-04 12:00:00 25.1 7 Sudeste 16 Sudeste 0 -- -- 36
2018-12-04 11:00:00 25.2 4 Sur 11 Sudoeste 0 -- -- 30
2018-12-04 10:00:00 23.3 7 Sur 12 Sur 0 -- -- 45
2018-12-04 09:00:00 18.8 5 Norte 10 Norte 0 -- -- 52
2018-12-04 08:00:00 16.1 6 Norte 11 Norte 0 -- -- 55
2018-12-04 07:00:00 15.9 5 Norte 13 Norte 0 -- -- 50
2018-12-04 06:00:00 15 5 Norte 9 Norte 0 -- -- 51
2018-12-04 05:00:00 15.1 4 Norte 9 Norte 0 -- -- 53
2018-12-04 04:00:00 14.6 5 Norte 10 Norte 0 -- -- 59
2018-12-04 03:00:00 14.5 5 Norte 9 Norte 0 -- -- 57
2018-12-04 02:00:00 14.7 4 Norte 9 Norte 0 -- -- 60
2018-12-04 01:00:00 15.5 5 Norte 10 Norte 0 -- -- 75
2018-12-04 00:00:00 16.4 4 Noroeste 9 Norte 0 -- -- 87
2018-12-03 23:00:00 15.8 5 Norte 11 Norte 0 -- -- 75
2018-12-03 22:00:00 15.7 6 Norte 9 Norte 0 -- -- 64
2018-12-03 21:00:00 15.9 5 Norte 9 Norte 0 -- -- 61
2018-12-03 20:00:00 17 4 Norte 8 Norte 0 -- -- 63
2018-12-03 19:00:00 17.9 4 Norte 8 Norte 0 -- -- 77
2018-12-03 18:00:00 20.1 0 Calma 8 Sudeste 0 -- -- 75
2018-12-03 17:00:00 21.4 4 Sudeste 12 Sudeste 0 -- -- 68
2018-12-03 16:00:00 23.2 7 Sudeste 12 Sudeste 0 -- -- 66
2018-12-03 15:00:00 23.5 7 Sudeste 14 Sudeste 0 -- -- 65
2018-12-03 14:00:00 23.5 7 Sur 14 Sudeste 0 -- -- 61
2018-12-03 13:00:00 22.7 6 Sur 12 Sur 0 -- -- 66
2018-12-03 12:00:00 22.2 6 Sur 11 Sudeste 0 -- -- 66
2018-12-03 11:00:00 21.8 4 Sur 9 Sur 0 -- -- 66
2018-12-03 10:00:00 19.1 0 Calma 5 Norte 0 -- -- 79
2018-12-03 09:00:00 16.9 0 Calma 4 Norte 0 -- -- 89
2018-12-03 08:00:00 16.1 0 Calma 8 Norte 0 -- -- 88
2018-12-03 07:00:00 15.6 4 Norte 9 Norte 0 -- -- 88
2018-12-03 06:00:00 15.7 5 Norte 9 Noroeste 0 -- -- 86
2018-12-03 05:00:00 15.4 4 Norte 10 Norte 0 -- -- 85
2018-12-03 04:00:00 15.1 4 Norte 9 Norte 0 -- -- 85
2018-12-03 03:00:00 15.4 5 Norte 12 Norte 0 -- -- 85
2018-12-03 02:00:00 15.6 5 Norte 10 Norte 0 -- -- 86
2018-12-03 01:00:00 15.5 3 Norte 9 Nordeste 0 -- -- 86
2018-12-03 00:00:00 15.7 4 Norte 9 Norte 0 -- -- 85
2018-12-02 23:00:00 16.2 4 Norte 8 Norte 0 -- -- 83
2018-12-02 22:00:00 16.5 4 Norte 10 Norte 0 -- -- 82
2018-12-02 21:00:00 17 4 Norte 9 Norte 0 -- -- 80
2018-12-02 20:00:00 17.9 4 Norte 8 Norte 0 -- -- 76
2018-12-02 19:00:00 18.8 5 Norte 8 Norte 0 -- -- 74
2018-12-02 18:00:00 19.8 3 Sudeste 9 Este 0 -- -- 70
2018-12-02 17:00:00 20.3 4 Sudeste 10 Sudeste 0 -- -- 67
2018-12-02 16:00:00 22.3 5 Sur 10 Sudeste 0 -- -- 60
2018-12-02 15:00:00 22.5 4 Sudeste 15 Sur 0 -- -- 58
2018-12-02 14:00:00 22.3 6 Sudeste 16 Sudeste 0 -- -- 56
2018-12-02 13:00:00 21.4 6 Sudeste 14 Sur 0 -- -- 61
2018-12-02 12:00:00 21.5 4 Sur 16 Sur 0 -- -- 61
2018-12-02 11:00:00 20.9 6 Sur 20 Sudeste 0 -- -- 62
2018-12-02 10:00:00 20.6 8 Sur 18 Sudeste 0 -- -- 63
2018-12-02 09:00:00 19.6 3 Sur 17 Sur 0 -- -- 67
2018-12-02 08:00:00 18.2 2 Norte 12 Norte 0 -- -- 72
2018-12-02 07:00:00 17.5 0 Calma 7 Norte 0 -- -- 76
2018-12-02 06:00:00 17.2 4 Norte 8 Norte 0 -- -- 75
2018-12-02 05:00:00 17.4 2 Norte 10 Noroeste 0 -- -- 78
2018-12-02 04:00:00 17.4 4 Norte 10 Norte 0 -- -- 76
2018-12-02 03:00:00 17 4 Norte 8 Norte 0 -- -- 78
2018-12-02 02:00:00 18 2 Norte 7 Noroeste 0 -- -- 73
2018-12-02 01:00:00 18.3 2 Noroeste 6 Noroeste 0 -- -- 75
2018-12-02 00:00:00 18.5 2 Norte 8 Nordeste 0 -- -- 77
2018-12-01 23:00:00 18 0 Calma 4 Noroeste 0 -- -- 81
2018-12-01 22:00:00 17.9 0 Calma 6 Norte 0 -- -- 81
2018-12-01 21:00:00 18.4 2 Noroeste 5 Nordeste 0 -- -- 77
2018-12-01 20:00:00 19.9 2 Nordeste 8 Norte 0 -- -- 72
2018-12-01 19:00:00 20.5 2 Noroeste 15 Sur 0 -- -- 70
2018-12-01 18:00:00 20.7 5 Sudeste 18 Sudeste 0 -- -- 74
2018-12-01 17:00:00 20.9 6 Sudeste 18 Sudeste 0 -- -- 76
2018-12-01 16:00:00 21.5 8 Sur 20 Sudeste 0 -- -- 72
2018-12-01 15:00:00 22 9 Sudeste 25 Sudeste 0 -- -- 71
2018-12-01 14:00:00 22.7 8 Sudeste 20 Este 0 -- -- 69
2018-12-01 13:00:00 23.2 5 Sur 19 Sur 0 -- -- 69
2018-12-01 12:00:00 21.3 4 Sudoeste 15 Sudeste 0 -- -- 79
2018-12-01 11:00:00 21.9 4 Sudeste 10 Sudeste 0 -- -- 73
2018-12-01 10:00:00 20.1 2 Norte 8 Norte 0 -- -- 79
2018-12-01 09:00:00 19.6 2 Noroeste 14 Sur 0 -- -- 79
2018-12-01 08:00:00 19.6 7 Sur 21 Sur 0 -- -- 79
2018-12-01 07:00:00 19.6 3 Sur 13 Sur 0 -- -- 78
2018-12-01 06:00:00 19.9 3 Sur 14 Sur 0 -- -- 77
2018-12-01 05:00:00 19.5 0 Calma 13 Sur 0 -- -- 70
2018-12-01 04:00:00 18.9 4 Noroeste 8 Nordeste 0 -- -- 73
2018-12-01 03:00:00 18.6 2 Nordeste 10 Sur 0 -- -- 74
2018-12-01 02:00:00 17.6 3 Norte 9 Noroeste 0 -- -- 78
2018-12-01 01:00:00 16.7 3 Norte 8 Norte 0 -- -- 81
2018-12-01 00:00:00 17.1 3 Norte 7 Norte 0 -- -- 79
2018-11-30 23:00:00 17.3 0 Calma 4 Norte 0 -- -- 78
2018-11-30 22:00:00 18.3 0 Calma 11 Norte 0 -- -- 74
2018-11-30 21:00:00 19.1 6 Norte 22 Norte 0 -- -- 71
2018-11-30 20:00:00 19.3 10 Norte 26 Norte 0 -- -- 71
2018-11-30 19:00:00 19.5 11 Norte 29 Nordeste 0 -- -- 70
2018-11-30 18:00:00 19.9 11 Norte 24 Nordeste 0 -- -- 69
2018-11-30 17:00:00 20.8 8 Norte 22 Noroeste 0 -- -- 65
2018-11-30 16:00:00 23.6 5 Oeste 15 Norte 0 -- -- 58
2018-11-30 15:00:00 23.2 8 Sudeste 21 Sur 0 -- -- 60
2018-11-30 14:00:00 22.6 10 Sudeste 22 Sur 0 -- -- 63
2018-11-30 13:00:00 22.8 10 Sudeste 20 Sudeste 0 -- -- 61
2018-11-30 12:00:00 23.1 5 Sudeste 12 Sur 0 -- -- 60
2018-11-30 11:00:00 22.8 5 Sur 9 Sur 0 -- -- 61
2018-11-30 10:00:00 21.7 4 Sur 8 Sur 0 -- -- 66
2018-11-30 09:00:00 17.4 4 Norte 10 Norte 0 -- -- 77
2018-11-30 08:00:00 14.5 0 Calma 9 Norte 0 -- -- 81
2018-11-30 07:00:00 14.6 5 Norte 9 Norte 0 -- -- 80
2018-11-30 06:00:00 15.2 4 Norte 8 Norte 0 -- -- 81
2018-11-30 05:00:00 15 2 Norte 9 Noroeste 0 -- -- 86
2018-11-30 04:00:00 15 4 Norte 7 Norte 0 -- -- 81
2018-11-30 03:00:00 15.7 4 Norte 8 Norte 0 -- -- 80
2018-11-30 02:00:00 15.8 4 Norte 7 Noroeste 0 -- -- 83
2018-11-30 01:00:00 16.6 3 Norte 7 Norte 0 -- -- 82
2018-11-30 00:00:00 18.3 2 Norte 10 Norte 0 -- -- 78
2018-11-29 23:00:00 19.7 4 Noroeste 24 Norte 0 -- -- 72
2018-11-29 22:00:00 19.8 10 Norte 25 Norte 0 -- -- 72
2018-11-29 21:00:00 19.8 9 Norte 24 Norte 0 -- -- 74
2018-11-29 20:00:00 18.7 5 Norte 13 Norte 0 -- -- 78
2018-11-29 19:00:00 18.5 5 Norte 9 Norte 0 -- -- 74
2018-11-29 18:00:00 20.1 3 Norte 6 Norte 0 -- -- 72
2018-11-29 17:00:00 21.5 3 Sudoeste 12 Sur 0 -- -- 66
2018-11-29 16:00:00 23.3 6 Sur 14 Sudeste 0 -- -- 62
2018-11-29 15:00:00 24.6 7 Sudeste 15 Sudeste 0 -- -- 54
2018-11-29 14:00:00 24.2 6 Sur 16 Sudeste 0 -- -- 58
2018-11-29 13:00:00 22.9 8 Sudeste 17 Sur 0 -- -- 66
2018-11-29 12:00:00 23.4 4 Sudeste 12 Sur 0 -- -- 64
2018-11-29 11:00:00 22.7 6 Sur 11 Sudeste 0 -- -- 65
2018-11-29 10:00:00 22.2 5 Sur 10 Sur 0 -- -- 67
2018-11-29 09:00:00 19 3 Sudoeste 9 Norte 0 -- -- 80
2018-11-29 08:00:00 16.5 0 Calma 6 Este 0 -- -- 88
2018-11-29 07:00:00 15.1 0 Calma 8 Norte 0 -- -- 88
2018-11-29 06:00:00 15.5 3 Norte 9 Nordeste 0 -- -- 90
2018-11-29 05:00:00 15.2 5 Norte 9 Norte 0 -- -- 88
2018-11-29 04:00:00 15.8 5 Norte 8 Norte 0 -- -- 86
2018-11-29 03:00:00 15.7 5 Norte 8 Norte 0 -- -- 87
2018-11-29 02:00:00 15.9 5 Norte 9 Norte 0 -- -- 88
2018-11-29 01:00:00 16 5 Norte 8 Norte 0 -- -- 86
2018-11-29 00:00:00 16.2 4 Norte 10 Norte 0 -- -- 86
2018-11-28 23:00:00 16.5 4 Norte 9 Norte 0 -- -- 86
2018-11-28 22:00:00 17 4 Norte 8 Norte 0 -- -- 86
2018-11-28 21:00:00 17.2 4 Norte 8 Norte 0 -- -- 87
2018-11-28 20:00:00 17.5 3 Norte 9 Norte 0 -- -- 86
2018-11-28 13:00:00 -- -- -- -- -- -- -- -- --
2018-11-28 12:00:00 -- -- -- -- -- -- -- -- --
2018-11-28 11:00:00 -- -- -- -- -- -- -- -- --
2018-11-28 10:00:00 20.2 5 Sur 10 Sur 0 -- -- 68
2018-11-28 09:00:00 18.1 3 Norte 10 Nordeste 0 -- -- 78
2018-11-28 08:00:00 16.6 4 Norte 9 Norte 0 -- -- 81
2018-11-28 07:00:00 16.6 4 Norte 9 Norte 0 -- -- 80
2018-11-28 06:00:00 15.9 5 Norte 10 Norte 0 -- -- 81
2018-11-28 05:00:00 15.9 4 Norte 10 Norte 0 -- -- 80
2018-11-28 04:00:00 16.5 5 Norte 11 Norte 0 -- -- 80
2018-11-28 03:00:00 17.4 4 Norte 10 Norte 0 -- -- 77
2018-11-28 02:00:00 17 5 Norte 10 Norte 0 -- -- 79
2018-11-28 01:00:00 17.3 4 Norte 11 Norte 0 -- -- 79
2018-11-28 00:00:00 16.9 4 Norte 9 Norte 0 -- -- 79
2018-11-27 23:00:00 16.6 6 Norte 9 Norte 0 -- -- 79
2018-11-27 22:00:00 17.1 4 Norte 12 Noroeste 0 -- -- 77
2018-11-27 21:00:00 17.6 4 Norte 8 Norte 0 -- -- 75
2018-11-27 20:00:00 18.9 4 Norte 13 Norte 0 -- -- 68
2018-11-27 19:00:00 19.5 3 Norte 7 Norte 0 -- -- 72
2018-11-27 18:00:00 20.5 2 Nordeste 17 Norte 0 -- -- 67
2018-11-27 17:00:00 21.1 5 Sur 26 Sudeste 0 -- -- 68
2018-11-27 16:00:00 21.7 13 Sur 28 Sudeste 0 -- -- 68
2018-11-27 15:00:00 23 10 Sur 28 Sudeste 0 -- -- 65
2018-11-27 14:00:00 23.4 8 Nordeste 23 Sudeste 0 -- -- 59
2018-11-27 13:00:00 22.1 10 Sudeste 19 Este 0 -- -- 69
2018-11-27 12:00:00 21.7 9 Sudeste 17 Sudeste 0 -- -- 74
2018-11-27 11:00:00 21.5 6 Sudeste 21 Sudeste 0 -- -- 73
2018-11-27 10:00:00 22.4 9 Sudeste 22 Sudeste 0 -- -- 70
2018-11-27 09:00:00 19.7 2 Nordeste 8 Noroeste 0 -- -- 76
2018-11-27 08:00:00 17.3 4 Norte 8 Norte 0 -- -- 84
2018-11-27 07:00:00 17.1 5 Norte 8 Norte 0 -- -- 87
2018-11-27 06:00:00 17.7 3 Norte 5 Norte 0 -- -- 86
2018-11-27 05:00:00 17.8 0 Calma 5 Norte 0 -- -- 87
2018-11-27 04:00:00 18.1 2 Noroeste 6 Norte 0 -- -- 84
2018-11-27 03:00:00 17.7 0 Calma 6 Noroeste 0 -- -- 86
2018-11-27 02:00:00 17.2 3 Norte 6 Norte 0 -- -- 86
2018-11-27 01:00:00 17.4 3 Norte 8 Norte 0 -- -- 83
2018-11-27 00:00:00 17.9 2 Noroeste 6 Noroeste 0 -- -- 82
2018-11-26 23:00:00 17.6 4 Norte 8 Noroeste 0 -- -- 83
2018-11-26 22:00:00 18.2 4 Norte 9 Noroeste 0 -- -- 80
2018-11-26 21:00:00 18.4 6 Norte 11 Norte 0 -- -- 81
2018-11-26 20:00:00 18.7 5 Norte 13 Sur 0 -- -- 79
2018-11-26 19:00:00 20 0 Calma 8 Noroeste 0 -- -- 73
2018-11-26 18:00:00 21 2 Norte 18 Noroeste 0 -- -- 70
2018-11-26 17:00:00 21.8 8 Norte 20 Norte 0 -- -- 68
2018-11-26 16:00:00 22.8 9 Norte 24 Nordeste 0 -- -- 65
2018-11-26 15:00:00 23.9 7 Sudeste 21 Sudeste 0 -- -- 64
2018-11-26 14:00:00 23.5 11 Sur 21 Sudeste 0 -- -- 71
2018-11-26 13:00:00 24.2 4 Noroeste 15 Norte 0 -- -- 63
2018-11-26 12:00:00 23.9 5 Norte 14 Sudeste 0 -- -- 63
2018-11-26 11:00:00 22.4 3 Noroeste 11 Norte 0 -- -- 67
2018-11-26 10:00:00 20.9 0 Calma 4 Norte 0 -- -- 76
2018-11-26 09:00:00 19.9 2 Noroeste 4 Norte 0 -- -- 81
2018-11-26 08:00:00 18.7 3 Norte 5 Norte 0 -- -- 85
2018-11-26 07:00:00 18.1 2 Norte 8 Nordeste 0 -- -- 86
2018-11-26 06:00:00 17.4 2 Norte 7 Norte 0 -- -- 86
2018-11-26 05:00:00 17.6 0 Calma 5 Nordeste 0 -- -- 86
2018-11-26 04:00:00 18.4 2 Noroeste 5 Noroeste 0 -- -- 85
2018-11-26 03:00:00 18.7 2 Norte 5 Norte 0 -- -- 84
2018-11-26 02:00:00 18.5 0 Calma 7 Norte 0 -- -- 84
2018-11-26 01:00:00 18.3 3 Norte 6 Norte 0 -- -- 84
2018-11-26 00:00:00 18.5 3 Norte 5 Noroeste 0 -- -- 83
2018-11-25 23:00:00 19.5 3 Noroeste 10 Norte 0 -- -- 78
2018-11-25 22:00:00 19.6 0 Calma 11 Nordeste 0 -- -- 79
2018-11-25 21:00:00 20.9 3 Noroeste 18 Norte 0 -- -- 75
2018-11-25 20:00:00 21.2 9 Norte 21 Norte 0 -- -- 75
2018-11-25 19:00:00 21.5 9 Norte 22 Norte 0 -- -- 73
2018-11-25 18:00:00 21.9 6 Norte 22 Norte 0 -- -- 73
2018-11-25 17:00:00 22.5 7 Norte 19 Nordeste 0 -- -- 70
2018-11-25 16:00:00 24 3 Sur 18 Nordeste 0 -- -- 65
2018-11-25 15:00:00 24.6 10 Nordeste 25 Este 0 -- -- 61
2018-11-25 14:00:00 23.4 6 Sudoeste 17 Sur 0 -- -- 67
2018-11-25 13:00:00 23.5 7 Sur 16 Sur 0 -- -- 64
2018-11-25 12:00:00 23.7 5 Sudeste 12 Sur 0 -- -- 59
2018-11-25 11:00:00 23.3 6 Sur 13 Sur 0 -- -- 61
2018-11-25 10:00:00 20.6 0 Calma 6 Noroeste 0 -- -- 70
2018-11-25 09:00:00 17.8 2 Norte 6 Norte 0 -- -- 85
2018-11-25 08:00:00 16.9 2 Norte 5 Norte 0 -- -- 88
2018-11-25 07:00:00 17.3 0 Calma 8 Norte 0 -- -- 84
2018-11-25 06:00:00 17.3 3 Norte 6 Norte 0 -- -- 81
2018-11-25 05:00:00 17.3 5 Norte 11 Noroeste 0 -- -- 79
2018-11-25 04:00:00 17 4 Norte 10 Norte 0 -- -- 80
2018-11-25 03:00:00 17 3 Norte 8 Norte 0 -- -- 80
2018-11-25 02:00:00 17.1 4 Norte 10 Norte 0 -- -- 82
2018-11-25 01:00:00 17 5 Norte 12 Noroeste 0 -- -- 83
2018-11-25 00:00:00 17.8 4 Norte 12 Oeste 0 -- -- 80
2018-11-24 23:00:00 18.1 2 Norte 9 Norte 0 -- -- 77
2018-11-24 22:00:00 18.7 4 Norte 8 Noroeste 0 -- -- 75
2018-11-24 21:00:00 19.2 3 Norte 6 Norte 0 -- -- 72
2018-11-24 20:00:00 19.3 0 Calma 6 Noroeste 0 -- -- 71
2018-11-24 19:00:00 19.3 4 Norte 8 Norte 0 -- -- 71
2018-11-24 18:00:00 19.5 0 Calma 10 Este 0 -- -- 66
2018-11-24 17:00:00 19.9 5 Este 15 Sur 0 -- -- 63
2018-11-24 16:00:00 21.5 7 Sudeste 21 Sur 0 -- -- 58
2018-11-24 15:00:00 21.5 10 Sudeste 19 Sur 0 -- -- 57
2018-11-24 14:00:00 21.6 11 Sudeste 22 Sudeste 0 -- -- 56
2018-11-24 13:00:00 21.4 10 Sudeste 23 Sur 0 -- -- 56
2018-11-24 12:00:00 21.1 11 Sudeste 22 Sudeste 0 -- -- 53
2018-11-24 11:00:00 20.8 10 Sudeste 22 Sur 0 -- -- 54
2018-11-24 10:00:00 20.4 2 Nordeste 8 Norte 0 -- -- 47
2018-11-24 09:00:00 18.1 2 Norte 11 Norte 0 -- -- 58
2018-11-24 08:00:00 14.3 6 Norte 9 Noroeste 0 -- -- 79
2018-11-24 07:00:00 14.4 5 Norte 9 Norte 0 -- -- 75
2018-11-24 06:00:00 14.8 5 Norte 9 Norte 0 -- -- 73
2018-11-24 05:00:00 14.9 4 Norte 12 Noroeste 0 -- -- 73
2018-11-24 04:00:00 13.9 0 Calma 8 Norte 0 -- -- 79
2018-11-24 03:00:00 14.9 7 Norte 12 Norte 0 -- -- 74
2018-11-24 02:00:00 15.9 5 Norte 11 Norte 0 -- -- 66
2018-11-24 01:00:00 15.4 4 Norte 9 Norte 0 -- -- 70
2018-11-24 00:00:00 15.8 5 Norte 9 Norte 0 -- -- 73
2018-11-23 23:00:00 18 4 Noroeste 10 Nordeste 0 -- -- 61
2018-11-23 22:00:00 18.1 3 Noroeste 9 Noroeste 0 -- -- 62
2018-11-23 21:00:00 18.3 4 Oeste 12 Noroeste 0 -- -- 59
2018-11-23 20:00:00 18.2 3 Oeste 18 Noroeste 0 -- -- 60
2018-11-23 19:00:00 18.4 0 Calma 13 Norte 0 -- -- 63
2018-11-23 18:00:00 18.7 5 Norte 15 Norte 0 -- -- 60
2018-11-23 17:00:00 19 8 Norte 21 Norte 0 -- -- 59
2018-11-23 16:00:00 20.4 7 Norte 24 Norte 0 -- -- 52
2018-11-23 15:00:00 20.5 8 Norte 31 Noroeste 0 -- -- 57
2018-11-23 14:00:00 20.1 8 Norte 24 Norte 0 -- -- 58
2018-11-23 13:00:00 19.7 13 Norte 33 Norte 0.4 -- -- 60
2018-11-23 12:00:00 19.2 12 Norte 27 Norte 0 -- -- 59
2018-11-23 11:00:00 17.9 8 Norte 23 Noroeste 2 -- -- 68
2018-11-23 10:00:00 16.9 5 Norte 14 Norte 1.6 -- -- 75
2018-11-23 09:00:00 16.5 6 Norte 32 Norte 0.4 -- -- 74
2018-11-23 08:00:00 15.4 6 Nordeste 31 Norte 1.2 -- -- 80
2018-11-23 07:00:00 16.1 6 Noroeste 24 Norte 0 -- -- 67
2018-11-23 06:00:00 15.3 5 Norte 18 Noroeste 0 -- -- 70
2018-11-23 05:00:00 14.7 3 Sudeste 27 Norte 0.2 -- -- 77
2018-11-23 04:00:00 14.4 10 Norte 25 Norte 1.2 -- -- 77
2018-11-23 03:00:00 14.8 3 Sudoeste 29 Norte 0.6 -- -- 77
2018-11-23 02:00:00 16.2 6 Norte 22 Noroeste 0 -- -- 70
2018-11-23 01:00:00 15.7 9 Norte 31 Norte 0.8 -- -- 75
2018-11-23 00:00:00 16.4 12 Norte 32 Noroeste 0.2 -- -- 74
2018-11-22 23:00:00 16.5 5 Norte 20 Norte 0.2 -- -- 71
2018-11-22 22:00:00 16 7 Norte 17 Norte 0.6 -- -- 77
2018-11-22 21:00:00 16 5 Noroeste 15 Noroeste 1.6 -- -- 77
2018-11-22 20:00:00 16.7 4 Noroeste 19 Norte 0.4 -- -- 76
2018-11-22 19:00:00 16.7 5 Norte 35 Norte 2 -- -- 77
2018-11-22 18:00:00 17.6 9 Norte 36 Norte 0 -- -- 72
2018-11-22 17:00:00 17.5 13 Norte 46 Noroeste 0.8 -- -- 73
2018-11-22 16:00:00 17.9 16 Norte 39 Norte 1.4 -- -- 78
2018-11-22 15:00:00 18 12 Norte 32 Norte 1.8 -- -- 76
2018-11-22 14:00:00 18.9 9 Norte 26 Noroeste 0.2 -- -- 72
2018-11-22 13:00:00 19.2 10 Norte 22 Norte 1.2 -- -- 75
2018-11-22 12:00:00 18.1 6 Norte 14 Norte 2.2 -- -- 82
2018-11-22 11:00:00 18.4 2 Norte 8 Oeste 0.4 -- -- 81
2018-11-22 10:00:00 17.2 2 Norte 11 Norte 3.4 -- -- 89
2018-11-22 09:00:00 17.4 5 Norte 11 Nordeste 0 -- -- 86
2018-11-22 08:00:00 17.1 0 Calma 6 Norte 0.2 -- -- 89
2018-11-22 07:00:00 17.2 4 Norte 8 Norte 0.8 -- -- 88
2018-11-22 06:00:00 17.4 2 Nordeste 9 Norte 0 -- -- 86
2018-11-22 05:00:00 17.5 0 Calma 6 Norte 0.2 -- -- 85
2018-11-22 04:00:00 17.8 2 Norte 9 Norte 0 -- -- 81
2018-11-22 03:00:00 18.1 0 Calma 6 Noroeste 0 -- -- 76
2018-11-22 02:00:00 18.1 2 Norte 4 Norte 0 -- -- 76
2018-11-22 01:00:00 17.8 2 Norte 8 Norte 0 -- -- 82
2018-11-22 00:00:00 17.7 4 Norte 8 Norte 0 -- -- 83
2018-11-21 23:00:00 18.2 0 Calma 6 Norte 0 -- -- 80
2018-11-21 22:00:00 18.6 3 Nordeste 24 Nordeste 0 -- -- 75
2018-11-21 21:00:00 18.2 8 Norte 29 Norte 0 -- -- 79
2018-11-21 20:00:00 18.6 11 Norte 36 Nordeste 0 -- -- 78
2018-11-21 19:00:00 18.4 13 Norte 37 Norte 0 -- -- 81
2018-11-21 18:00:00 19.3 17 Norte 32 Nordeste 0.2 -- -- 77
2018-11-21 17:00:00 20.3 8 Norte 29 Sur 0.4 -- -- 82
2018-11-21 16:00:00 21.1 14 Sudeste 30 Sur 0 -- -- 75
2018-11-21 15:00:00 21.3 11 Sudeste 24 Sudeste 0 -- -- 74
2018-11-21 14:00:00 22 11 Nordeste 29 Nordeste 0 -- -- 69
2018-11-21 13:00:00 22 11 Este 36 Sudeste 0 -- -- 72
2018-11-21 12:00:00 21.8 17 Sudeste 32 Sudeste 0 -- -- 72
2018-11-21 11:00:00 21.8 3 Este 14 Este 0 -- -- 67
2018-11-21 10:00:00 21.5 4 Sudeste 9 Sur 0 -- -- 65
2018-11-21 09:00:00 18.9 4 Norte 7 Norte 0 -- -- 80
2018-11-21 08:00:00 17.2 4 Norte 8 Norte 0 -- -- 86
2018-11-21 07:00:00 17.1 5 Norte 10 Norte 0 -- -- 84
2018-11-21 06:00:00 16.7 5 Norte 12 Norte 0 -- -- 79
2018-11-21 05:00:00 16.8 5 Norte 9 Norte 0 -- -- 76
2018-11-21 04:00:00 16.7 7 Norte 10 Norte 0 -- -- 77
2018-11-21 03:00:00 17.3 6 Norte 10 Noroeste 0 -- -- 76
2018-11-21 02:00:00 17.5 4 Norte 10 Nordeste 0 -- -- 75
2018-11-21 01:00:00 17.4 5 Norte 8 Norte 0 -- -- 78
2018-11-21 00:00:00 17.5 3 Norte 8 Norte 0 -- -- 77
2018-11-20 23:00:00 17.6 4 Norte 11 Nordeste 0 -- -- 77
2018-11-20 22:00:00 17.1 4 Norte 8 Norte 0 -- -- 79
2018-11-20 21:00:00 18.1 5 Norte 8 Norte 0 -- -- 76
2018-11-20 20:00:00 18.7 4 Norte 6 Norte 0 -- -- 73
2018-11-20 19:00:00 19.9 4 Norte 7 Norte 0 -- -- 69
2018-11-20 18:00:00 21.1 4 Nordeste 10 Sur 0 -- -- 63
2018-11-20 17:00:00 21.6 5 Sudeste 14 Sur 0 -- -- 64
2018-11-20 16:00:00 22.7 5 Este 25 Sur 0 -- -- 61
2018-11-20 15:00:00 23.4 7 Sudeste 17 Sur 0 -- -- 59
2018-11-20 14:00:00 22.9 9 Sudeste 24 Sudeste 0 -- -- 58
2018-11-20 13:00:00 23 10 Sudeste 22 Sudeste 0 -- -- 60
2018-11-20 12:00:00 22.9 7 Sudeste 17 Este 0 -- -- 60
2018-11-20 11:00:00 22 8 Nordeste 19 Sudeste 0 -- -- 60
2018-11-20 10:00:00 21.6 3 Nordeste 9 Norte 0 -- -- 58
2018-11-20 09:00:00 18.2 4 Norte 9 Norte 0 -- -- 75
2018-11-20 08:00:00 15.7 4 Norte 11 Norte 0 -- -- 82
2018-11-20 07:00:00 16.3 4 Norte 9 Nordeste 0 -- -- 79
2018-11-20 06:00:00 16.1 5 Norte 10 Norte 0 -- -- 80
2018-11-20 05:00:00 16.1 4 Norte 8 Norte 0 -- -- 80
2018-11-20 04:00:00 16.2 3 Norte 8 Norte 0 -- -- 78
2018-11-20 03:00:00 16.5 2 Norte 5 Norte 0 -- -- 77
2018-11-20 02:00:00 18.4 2 Oeste 14 Norte 0 -- -- 67
2018-11-20 01:00:00 18.8 4 Noroeste 14 Noroeste 0 -- -- 64
2018-11-20 00:00:00 18.6 4 Noroeste 12 Norte 0 -- -- 64
2018-11-19 23:00:00 18.5 2 Noroeste 12 Norte 0 -- -- 64
2018-11-19 22:00:00 18.6 4 Norte 20 Norte 0 -- -- 65
2018-11-19 21:00:00 19 7 Norte 27 Norte 0 -- -- 62
2018-11-19 20:00:00 19.4 9 Norte 28 Noroeste 0 -- -- 65
2018-11-19 19:00:00 19.4 4 Noroeste 19 Oeste 0 -- -- 64
2018-11-19 18:00:00 19.5 5 Norte 19 Norte 0 -- -- 66
2018-11-19 17:00:00 19.8 5 Norte 28 Nordeste 0 -- -- 61
2018-11-19 16:00:00 20.7 9 Norte 23 Norte 0 -- -- 60
2018-11-19 15:00:00 20.8 9 Norte 28 Norte 0 -- -- 65
2018-11-19 14:00:00 21.9 8 Norte 27 Norte 0 -- -- 52
2018-11-19 13:00:00 21.7 9 Norte 28 Nordeste 0 -- -- 55
2018-11-19 12:00:00 20.1 10 Nordeste 21 Noroeste 0 -- -- 66
2018-11-19 11:00:00 21 9 Noroeste 31 Norte 0 -- -- 56
2018-11-19 10:00:00 18.6 11 Norte 31 Norte 0 -- -- 73
2018-11-19 09:00:00 18.4 13 Norte 31 Norte 0 -- -- 69
2018-11-19 08:00:00 17.2 12 Norte 30 Nordeste 0.6 -- -- 73
2018-11-19 07:00:00 16.8 5 Norte 15 Norte 0 -- -- 79
2018-11-19 06:00:00 17.8 6 Norte 17 Norte 0 -- -- 70
2018-11-19 05:00:00 18 6 Norte 27 Norte 0 -- -- 64
2018-11-19 04:00:00 17.4 13 Norte 30 Norte 0.2 -- -- 69
2018-11-19 03:00:00 17.2 5 Noroeste 10 Noroeste 0.2 -- -- 79
2018-11-19 02:00:00 16.4 3 Norte 15 Norte 0 -- -- 74
2018-11-19 01:00:00 16.7 0 Calma 9 Norte 0 -- -- 76
2018-11-19 00:00:00 17.7 0 Calma 12 Norte 0 -- -- 71
2018-11-18 23:00:00 18.2 2 Oeste 9 Norte 0 -- -- 68
2018-11-18 22:00:00 18.9 3 Norte 13 Sudoeste 0 -- -- 66
2018-11-18 21:00:00 19 3 Sudoeste 10 Sur 0 -- -- 62
2018-11-18 20:00:00 19.1 3 Noroeste 19 Noroeste 0 -- -- 66
2018-11-18 19:00:00 19.4 5 Sudoeste 21 Noroeste 0 -- -- 64
2018-11-18 18:00:00 19.3 2 Sur 40 Norte 0 -- -- 63
2018-11-18 17:00:00 19.3 15 Norte 55 Norte 0.2 -- -- 65
2018-11-18 16:00:00 18.8 18 Norte 42 Norte 0.4 -- -- 67
2018-11-18 15:00:00 21 20 Norte 39 Norte 0.2 -- -- 56
2018-11-18 14:00:00 19.3 13 Norte 36 Norte 0.2 -- -- 63
2018-11-18 13:00:00 21.9 9 Norte 35 Noroeste 0 -- -- 53
2018-11-18 12:00:00 21.2 13 Norte 35 Norte 0 -- -- 54
2018-11-18 11:00:00 20.7 8 Norte 16 Norte 0 -- -- 57
2018-11-18 10:00:00 20 3 Noroeste 7 Norte 0 -- -- 59
2018-11-18 09:00:00 18.9 3 Norte 12 Noroeste 0 -- -- 66
2018-11-18 08:00:00 18.6 3 Norte 22 Norte 0 -- -- 70
2018-11-18 07:00:00 18.4 8 Norte 31 Norte 0 -- -- 65
2018-11-18 06:00:00 18.5 16 Norte 37 Norte 0 -- -- 65
2018-11-18 05:00:00 18.6 14 Norte 30 Norte 0.2 -- -- 65
2018-11-18 04:00:00 18.6 8 Noroeste 25 Noroeste 0 -- -- 67
2018-11-18 03:00:00 18.3 9 Norte 20 Norte 0.2 -- -- 69
2018-11-18 02:00:00 18.7 6 Norte 21 Norte 0.4 -- -- 72
2018-11-18 01:00:00 19.2 6 Norte 20 Nordeste 0 -- -- 61
2018-11-18 00:00:00 19.6 7 Norte 18 Norte 0 -- -- 62
2018-11-17 23:00:00 19.6 6 Norte 19 Noroeste 0.2 -- -- 66
2018-11-17 22:00:00 20 6 Norte 27 Norte 0 -- -- 62
2018-11-17 21:00:00 19.8 8 Norte 31 Norte 0.6 -- -- 71
2018-11-17 20:00:00 19.8 7 Norte 24 Nordeste 0.4 -- -- 70
2018-11-17 19:00:00 20.4 6 Norte 31 Noroeste 0 -- -- 65
2018-11-17 18:00:00 20 15 Norte 42 Nordeste 0.6 -- -- 70
2018-11-17 17:00:00 20.3 17 Norte 40 Norte 0.4 -- -- 72
2018-11-17 16:00:00 21.2 12 Norte 31 Norte 0 -- -- 69
2018-11-17 15:00:00 22 15 Norte 34 Norte 0 -- -- 68
2018-11-17 14:00:00 19.9 14 Norte 38 Nordeste 0.8 -- -- 77
2018-11-17 13:00:00 20.9 7 Norte 18 Norte 1 -- -- 81
2018-11-17 12:00:00 21.7 3 Sudeste 9 Sur 0 -- -- 65
2018-11-17 11:00:00 21.5 0 Calma 10 Sudeste 0 -- -- 69
2018-11-17 10:00:00 21.8 5 Sudeste 10 Sur 0 -- -- 66
2018-11-17 09:00:00 18.8 2 Noroeste 15 Norte 0 -- -- 74
2018-11-17 08:00:00 17.2 7 Norte 14 Norte 0 -- -- 77
2018-11-17 07:00:00 17.6 3 Norte 13 Norte 0 -- -- 72
2018-11-17 06:00:00 17.6 4 Norte 15 Norte 0 -- -- 69
2018-11-17 05:00:00 18.9 6 Este 18 Sudeste 0 -- -- 63
2018-11-17 04:00:00 17.2 4 Norte 12 Norte 0 -- -- 74
2018-11-17 03:00:00 16.7 5 Norte 12 Norte 0 -- -- 71
2018-11-17 02:00:00 17.4 5 Noroeste 12 Norte 0 -- -- 67
2018-11-17 01:00:00 17.9 2 Norte 10 Norte 0 -- -- 74
2018-11-17 00:00:00 17.8 4 Noroeste 10 Norte 0 -- -- 77
2018-11-16 23:00:00 17.2 4 Norte 8 Norte 0 -- -- 79
2018-11-16 22:00:00 17.3 5 Norte 9 Norte 0 -- -- 76
2018-11-16 21:00:00 17.9 4 Norte 8 Norte 0 -- -- 73
2018-11-16 20:00:00 18.6 3 Norte 8 Norte 0 -- -- 71
2018-11-16 19:00:00 20.1 5 Norte 12 Norte 0 -- -- 64
2018-11-16 18:00:00 20.5 6 Norte 15 Este 0 -- -- 62
2018-11-16 17:00:00 21.1 5 Nordeste 21 Nordeste 0 -- -- 59
2018-11-16 16:00:00 21.3 7 Nordeste 24 Nordeste 0 -- -- 59
2018-11-16 15:00:00 22.2 10 Nordeste 25 Noroeste 0 -- -- 56
2018-11-16 14:00:00 23.6 9 Norte 28 Norte 0 -- -- 43
2018-11-16 13:00:00 22.8 13 Norte 30 Norte 0 -- -- 47
2018-11-16 12:00:00 22.7 11 Norte 26 Norte 0 -- -- 45
2018-11-16 11:00:00 22 4 Norte 14 Norte 0 -- -- 51
2018-11-16 10:00:00 20.6 6 Norte 17 Nordeste 0 -- -- 55
2018-11-16 09:00:00 19 2 Norte 8 Norte 0 -- -- 65
2018-11-16 08:00:00 17.4 0 Calma 5 Norte 0 -- -- 69
2018-11-16 07:00:00 18 0 Calma 13 Norte 0 -- -- 65
2018-11-16 06:00:00 18.6 6 Norte 26 Norte 0 -- -- 62
2018-11-16 05:00:00 18.7 5 Norte 31 Norte 0 -- -- 64
2018-11-16 04:00:00 18.6 9 Norte 24 Nordeste 0 -- -- 63
2018-11-16 03:00:00 18.7 3 Oeste 21 Norte 0 -- -- 59
2018-11-16 02:00:00 19.3 12 Norte 27 Norte 0 -- -- 53
2018-11-16 01:00:00 19.1 8 Norte 24 Norte 0 -- -- 59
2018-11-16 00:00:00 19.3 12 Norte 35 Norte 0 -- -- 58
2018-11-15 23:00:00 19.3 13 Norte 32 Norte 0 -- -- 59
2018-11-15 22:00:00 19.3 9 Norte 21 Norte 0 -- -- 60
2018-11-15 21:00:00 19.1 3 Norte 8 Norte 0 -- -- 63
2018-11-15 20:00:00 19.4 3 Norte 23 Norte 0 -- -- 60
2018-11-15 19:00:00 19.6 8 Norte 24 Norte 0 -- -- 55
2018-11-15 18:00:00 20.2 9 Norte 24 Norte 0 -- -- 57
2018-11-15 17:00:00 20.7 9 Norte 22 Norte 0 -- -- 63
2018-11-15 16:00:00 21.3 6 Norte 27 Norte 0 -- -- 57
2018-11-15 15:00:00 21.9 7 Norte 29 Norte 0 -- -- 56
2018-11-15 14:00:00 22.6 10 Norte 28 Norte 0 -- -- 54
2018-11-15 13:00:00 21.9 16 Norte 41 Norte 0 -- -- 61
2018-11-15 12:00:00 20.9 13 Norte 32 Norte 0.2 -- -- 68
2018-11-15 11:00:00 18.3 14 Norte 35 Noroeste 0.4 -- -- 81
2018-11-15 10:00:00 19.4 8 Norte 21 Norte 0 -- -- 69
2018-11-15 09:00:00 17.1 4 Norte 14 Noroeste 0 -- -- 72
2018-11-15 08:00:00 17.2 4 Norte 10 Norte 0 -- -- 72
2018-11-15 07:00:00 17.6 3 Noroeste 13 Norte 0 -- -- 70
2018-11-15 06:00:00 16.5 4 Norte 12 Noroeste 0 -- -- 74
2018-11-15 05:00:00 15.9 3 Norte 9 Norte 0 -- -- 76
2018-11-15 04:00:00 16.6 4 Norte 14 Norte 0 -- -- 76
2018-11-15 03:00:00 16.1 5 Norte 11 Norte 0 -- -- 76
2018-11-15 02:00:00 16.8 5 Norte 10 Norte 0 -- -- 70
2018-11-15 01:00:00 17.4 4 Norte 10 Norte 0 -- -- 72
2018-11-15 00:00:00 18.8 3 Noroeste 12 Norte 0 -- -- 64
2018-11-14 23:00:00 19.2 5 Norte 20 Norte 0 -- -- 64
2018-11-14 22:00:00 17.9 4 Norte 10 Norte 0 -- -- 75
2018-11-14 21:00:00 18.5 0 Calma 25 Norte 0 -- -- 69
2018-11-14 20:00:00 19.1 6 Norte 21 Norte 0 -- -- 62
2018-11-14 19:00:00 19.5 13 Norte 35 Norte 0 -- -- 60
2018-11-14 18:00:00 19.7 17 Norte 31 Norte 0 -- -- 58
2018-11-14 17:00:00 19.8 12 Norte 26 Norte 0 -- -- 60
2018-11-14 16:00:00 21.1 9 Norte 26 Norte 0 -- -- 57
2018-11-14 15:00:00 22 9 Norte 25 Norte 0 -- -- 53
2018-11-14 14:00:00 21.3 8 Norte 24 Norte 0 -- -- 58
2018-11-14 13:00:00 22.1 9 Norte 23 Norte 0 -- -- 54
2018-11-14 12:00:00 21.7 9 Norte 18 Nordeste 0 -- -- 54
2018-11-14 11:00:00 20.9 6 Norte 19 Nordeste 0 -- -- 58
2018-11-14 10:00:00 20.5 4 Norte 12 Norte 0 -- -- 58
2018-11-14 09:00:00 19.7 0 Calma 6 Este 0 -- -- 64
2018-11-14 08:00:00 17.5 0 Calma 3 Nordeste 0 -- -- 74
2018-11-14 07:00:00 18.2 0 Calma 11 Norte 0 -- -- 70
2018-11-14 06:00:00 18.7 5 Norte 17 Norte 0 -- -- 64
2018-11-14 05:00:00 18.8 3 Norte 15 Norte 0 -- -- 64
2018-11-14 04:00:00 17.6 4 Norte 11 Nordeste 0 -- -- 67
2018-11-14 03:00:00 18.4 5 Norte 14 Norte 0 -- -- 64
2018-11-14 02:00:00 18.5 3 Norte 17 Norte 0 -- -- 63
2018-11-14 01:00:00 18.9 5 Norte 17 Noroeste 0 -- -- 59
2018-11-14 00:00:00 19.5 5 Norte 16 Norte 0 -- -- 58
2018-11-13 23:00:00 19.5 3 Norte 14 Norte 0 -- -- 60
2018-11-13 22:00:00 19.4 9 Norte 25 Norte 0 -- -- 64
2018-11-13 21:00:00 19.5 7 Norte 22 Norte 0 -- -- 60
2018-11-13 20:00:00 19.2 6 Norte 29 Norte 0 -- -- 62
2018-11-13 19:00:00 19.6 4 Norte 22 Nordeste 0 -- -- 61
2018-11-13 18:00:00 19.7 8 Norte 26 Norte 0 -- -- 59
2018-11-13 17:00:00 20.2 8 Norte 27 Noroeste 0.2 -- -- 61
2018-11-13 16:00:00 20.4 5 Norte 30 Norte 0 -- -- 60
2018-11-13 15:00:00 22.1 9 Norte 30 Norte 0 -- -- 52
2018-11-13 14:00:00 21.5 14 Norte 32 Norte 0 -- -- 53
2018-11-13 13:00:00 21.7 12 Norte 31 Norte 0 -- -- 53
2018-11-13 12:00:00 20.8 10 Norte 26 Norte 0 -- -- 55
2018-11-13 11:00:00 20.6 6 Noroeste 22 Norte 0.2 -- -- 61
2018-11-13 10:00:00 20.7 12 Norte 24 Noroeste 0 -- -- 57
2018-11-13 09:00:00 19.7 8 Norte 19 Este 0 -- -- 59
2018-11-13 08:00:00 18.9 6 Norte 23 Noroeste 0 -- -- 60
2018-11-13 07:00:00 18.1 4 Nordeste 22 Norte 0 -- -- 69
2018-11-13 06:00:00 17.4 8 Norte 23 Norte 1 -- -- 77
2018-11-13 05:00:00 19.2 4 Oeste 21 Nordeste 0 -- -- 62
2018-11-13 04:00:00 19.2 5 Norte 17 Noroeste 0 -- -- 61
2018-11-13 03:00:00 19.3 5 Norte 14 Noroeste 0 -- -- 58
2018-11-13 02:00:00 19.3 3 Noroeste 27 Norte 0 -- -- 59
2018-11-13 01:00:00 19.1 3 Norte 17 Norte 0 -- -- 61
2018-11-13 00:00:00 19.5 6 Noroeste 30 Sudeste 0 -- -- 63
2018-11-12 23:00:00 19.1 5 Noroeste 19 Sudoeste 0 -- -- 64
2018-11-12 22:00:00 17.2 2 Oeste 30 Norte 0.4 -- -- 80
2018-11-12 21:00:00 19.5 10 Norte 30 Norte 0.2 -- -- 69
2018-11-12 20:00:00 20.3 8 Norte 24 Noroeste 0 -- -- 59
2018-11-12 19:00:00 20.3 8 Nordeste 26 Nordeste 0 -- -- 58
2018-11-12 18:00:00 20.4 12 Norte 27 Norte 0 -- -- 61
2018-11-12 17:00:00 20.7 6 Norte 31 Noroeste 0 -- -- 58
2018-11-12 16:00:00 21.2 13 Norte 42 Norte 0 -- -- 60
2018-11-12 15:00:00 21.7 15 Norte 40 Norte 0 -- -- 60
2018-11-12 14:00:00 20.6 13 Norte 36 Norte 1.8 -- -- 67
2018-11-12 13:00:00 19.7 11 Norte 34 Noroeste 3.2 -- -- 78
2018-11-12 12:00:00 19.8 15 Norte 41 Nordeste 2.2 -- -- 76
2018-11-12 11:00:00 19.6 14 Norte 34 Nordeste 0.8 -- -- 78
2018-11-12 10:00:00 19.5 8 Nordeste 19 Nordeste 0.6 -- -- 81
2018-11-12 09:00:00 19.2 3 Noroeste 12 Sudoeste 0 -- -- 81
2018-11-12 08:00:00 18.3 6 Sudoeste 15 Sudoeste 0.4 -- -- 85
2018-11-12 07:00:00 18.5 3 Noroeste 19 Norte 0 -- -- 80
2018-11-12 06:00:00 18.5 9 Norte 29 Norte 0 -- -- 76
2018-11-12 05:00:00 19.3 4 Norte 12 Noroeste 0 -- -- 71
2018-11-12 04:00:00 18.1 3 Norte 9 Norte 0 -- -- 77
2018-11-12 03:00:00 17.6 3 Norte 8 Norte 0 -- -- 78
2018-11-12 02:00:00 18 6 Norte 9 Norte 0 -- -- 77
2018-11-12 01:00:00 19.1 0 Calma 5 Norte 0 -- -- 72
2018-11-12 00:00:00 20.8 2 Oeste 9 Oeste 0 -- -- 64
2018-11-11 23:00:00 21.1 3 Noroeste 15 Noroeste 0 -- -- 62
2018-11-11 22:00:00 20.1 0 Calma 6 Noroeste 0 -- -- 66
2018-11-11 21:00:00 20.2 3 Noroeste 8 Nordeste 0 -- -- 64
2018-11-11 20:00:00 20.9 0 Calma 20 Norte 0 -- -- 63
2018-11-11 19:00:00 21.3 10 Norte 24 Norte 0 -- -- 62
2018-11-11 18:00:00 21.4 8 Norte 23 Norte 0 -- -- 63
2018-11-11 17:00:00 21.9 6 Norte 26 Nordeste 0 -- -- 61
2018-11-11 16:00:00 23.3 11 Norte 28 Norte 0 -- -- 54
2018-11-11 15:00:00 24.3 9 Norte 27 Norte 0 -- -- 47
2018-11-11 14:00:00 23.8 10 Norte 26 Norte 0 -- -- 47
2018-11-11 13:00:00 23.4 8 Norte 25 Norte 0 -- -- 50
2018-11-11 12:00:00 23.7 10 Norte 28 Norte 0 -- -- 48
2018-11-11 11:00:00 23.8 5 Norte 23 Norte 0 -- -- 48
2018-11-11 10:00:00 22.8 8 Norte 22 Norte 0 -- -- 52
2018-11-11 09:00:00 21.2 3 Norte 10 Este 0 -- -- 64
2018-11-11 08:00:00 19.5 3 Noroeste 15 Nordeste 0 -- -- 68
2018-11-11 07:00:00 19.3 4 Nordeste 8 Norte 0 -- -- 68
2018-11-11 06:00:00 19.2 3 Sur 19 Nordeste 0 -- -- 67
2018-11-11 05:00:00 19.2 3 Norte 13 Norte 0 -- -- 64
2018-11-11 04:00:00 19.4 3 Norte 10 Norte 0 -- -- 64
2018-11-11 03:00:00 20.1 5 Norte 18 Noroeste 0 -- -- 63
2018-11-11 02:00:00 19.7 4 Norte 14 Nordeste 0 -- -- 69
2018-11-11 01:00:00 19.5 3 Norte 14 Norte 0 -- -- 68
2018-11-11 00:00:00 19.8 2 Nordeste 12 Norte 0 -- -- 65
2018-11-10 23:00:00 20 5 Norte 12 Norte 0 -- -- 66
2018-11-10 22:00:00 19.8 5 Norte 13 Norte 0 -- -- 65
2018-11-10 21:00:00 20.1 3 Norte 15 Noroeste 0 -- -- 65
2018-11-10 20:00:00 20.3 3 Norte 15 Norte 0 -- -- 65
2018-11-10 19:00:00 20.5 5 Norte 15 Norte 0 -- -- 64
2018-11-10 18:00:00 20.9 4 Norte 23 Norte 0 -- -- 63
2018-11-10 17:00:00 21.5 4 Norte 20 Nordeste 0 -- -- 58
2018-11-10 16:00:00 22 5 Norte 28 Norte 0 -- -- 57
2018-11-10 15:00:00 22.9 6 Norte 24 Noroeste 0 -- -- 54
2018-11-10 14:00:00 22.7 10 Norte 24 Norte 0 -- -- 55
2018-11-10 13:00:00 22.8 9 Norte 22 Nordeste 0 -- -- 53
2018-11-10 12:00:00 22.7 7 Norte 22 Norte 0 -- -- 55
2018-11-10 11:00:00 22.1 5 Noroeste 21 Norte 0 -- -- 55
2018-11-10 10:00:00 21.1 9 Norte 21 Norte 0 -- -- 61
2018-11-10 09:00:00 20.3 5 Norte 23 Norte 0 -- -- 62
2018-11-10 08:00:00 19.9 8 Norte 21 Norte 0 -- -- 63
2018-11-10 07:00:00 19.6 5 Norte 16 Norte 0 -- -- 66
2018-11-10 06:00:00 18.9 4 Norte 8 Norte 0 -- -- 69
2018-11-10 05:00:00 19.3 0 Calma 14 Norte 0 -- -- 73
2018-11-10 04:00:00 19.4 5 Norte 15 Norte 0 -- -- 68
2018-11-10 03:00:00 18.5 4 Norte 8 Norte 0 -- -- 73
2018-11-10 02:00:00 18.6 2 Norte 8 Norte 0 -- -- 70
2018-11-10 01:00:00 18.3 0 Calma 10 Noroeste 0 -- -- 73
2018-11-10 00:00:00 18.8 2 Norte 11 Norte 0 -- -- 68
2018-11-09 23:00:00 19.3 4 Norte 14 Noroeste 0 -- -- 65
2018-11-09 22:00:00 19.8 4 Norte 12 Nordeste 0 -- -- 64
2018-11-09 21:00:00 20 3 Norte 12 Nordeste 0 -- -- 65
2018-11-09 20:00:00 20.3 4 Norte 10 Noroeste 0 -- -- 68
2018-11-09 19:00:00 20.5 3 Norte 7 Norte 0 -- -- 70
2018-11-09 18:00:00 21.2 2 Norte 13 Norte 0 -- -- 67
2018-11-09 17:00:00 21.5 4 Norte 13 Este 0 -- -- 66
2018-11-09 16:00:00 22.1 3 Nordeste 27 Sudeste 0 -- -- 64
2018-11-09 15:00:00 23.1 5 Sur 21 Sudeste 0 -- -- 62
2018-11-09 14:00:00 22.2 5 Sur 15 Sur 0 -- -- 65
2018-11-09 13:00:00 21.4 6 Sur 19 Sur 0.2 -- -- 79
2018-11-09 12:00:00 21.4 4 Sudoeste 12 Norte 0.2 -- -- 76
2018-11-09 11:00:00 20.5 6 Noroeste 14 Norte 1.4 -- -- 82
2018-11-09 10:00:00 20.2 5 Norte 14 Noroeste 1.4 -- -- 83
2018-11-09 09:00:00 19.3 2 Sudoeste 8 Noroeste 1.4 -- -- 89
2018-11-09 08:00:00 18.9 3 Norte 7 Noroeste 0.8 -- -- 87
2018-11-09 07:00:00 18.9 3 Noroeste 5 Nordeste 0.6 -- -- 89
2018-11-09 06:00:00 19.2 0 Calma 5 Norte 0.2 -- -- 86
2018-11-09 05:00:00 19.7 0 Calma 5 Norte 0 -- -- 83
2018-11-09 04:00:00 20.2 0 Calma 12 Noroeste 0 -- -- 75
2018-11-09 03:00:00 20.5 3 Norte 13 Nordeste 0 -- -- 73
2018-11-09 02:00:00 20.6 3 Norte 12 Norte 0 -- -- 71
2018-11-09 01:00:00 20.7 4 Norte 13 Norte 0 -- -- 70
2018-11-09 00:00:00 20.6 4 Norte 13 Noroeste 0 -- -- 71